Flag for United Kingdom Weather past 2 weeks in Newport, Wales, United Kingdom

Now
48 °F

Passing clouds.


Feels Like: 40 °F
Forecast: 41 / 49 °F
Wind: 26 mph from West

Location: Bristol / Lulsgate

Current Time: Mar 31, 2015 at 11:31:43 AM

Latest Report: Mar 31, 2015 at 10:50 AM


Visibility: N/A

Pressure: 29.89 "Hg

Humidity: 62%

Dew point: 36 °F

Location of NewportLocation

Historic Weather in Newport — Graph

°F

Newport temperature yesterday

Maximum temperature yesterday: 50 °F (at 7:20 PM)
Minimum temperature yesterday: 41 °F (at 2:50 AM)
Average temperature yesterday: 46 °F

Past Weeks' High & Low Weather Summary

 TemperatureHumidityPressure
High55 °F (Mar 28, 9:50 AM)100% (Mar 16, 6:50 PM)30.54 "Hg (Mar 16, 6:50 PM)
Low32 °F (Mar 25, 1:20 AM)47% (Mar 26, 4:20 PM)29.45 "Hg (Mar 29, 10:50 AM)
Average43 °F82%30.04 "Hg
* Reported Mar 16 9:20 AM — Mar 31 10:20 AM, Newport, Weather by CustomWeather, © 2015

Note: Actual official high and low records may vary slightly from our data, if they occured in-between our weather recording intervals... More about our weather records

Advertising

Newport weather history for previous 24 hours

 ConditionsComfort  
Time TempWeatherWind HumidityBarometerVisibility
10:20 AM
Tue, Mar 31
48 °FScattered clouds.25 mph62%29.86 "HgN/A
9:50 AM48 °FScattered clouds.29 mph62%29.83 "HgN/A
9:20 AM46 °FScattered clouds.28 mph76%29.80 "HgN/A
8:50 AM46 °FScattered clouds.24 mph76%29.77 "HgN/A
8:20 AM46 °FDrizzle. Broken clouds.29 mph82%29.74 "HgN/A
7:50 AM46 °FBroken clouds.30 mph76%29.68 "HgN/A
7:20 AM46 °FPartly cloudy.30 mph76%29.68 "HgN/A
6:50 AM46 °FPassing clouds.31 mph76%29.65 "HgN/A
6:20 AM46 °FPassing clouds.37 mph76%29.62 "HgN/A
5:50 AM46 °FPartly cloudy.35 mph76%29.59 "HgN/A
5:20 AM46 °FPartly cloudy.32 mph82%29.59 "HgN/A
4:50 AM46 °FPartly cloudy.32 mph82%29.56 "HgN/A
4:20 AM48 °FPartly cloudy.37 mph82%29.56 "Hg5 mi
3:50 AM46 °FPassing clouds.35 mph93%29.53 "Hg4 mi
3:20 AM48 °FPartly cloudy.36 mph87%29.53 "Hg4 mi
2:50 AM48 °FLow clouds.44 mph87%29.50 "Hg4 mi
2:20 AM48 °FLight rain. Passing clouds.39 mph94%29.50 "Hg5 mi
1:50 AM50 °FLight rain. Passing clouds.37 mph88%29.50 "Hg6 mi
1:20 AM48 °FLight rain. Passing clouds.38 mph100%29.50 "Hg3 mi
12:50 AM50 °FLight rain. Partly cloudy.38 mph94%29.53 "Hg3 mi
12:20 AM50 °FPassing clouds.32 mph94%29.53 "HgN/A
11:50 PM
Mon, Mar 30
50 °FPassing clouds.32 mph94%29.53 "Hg4 mi
11:20 PM48 °FPartly cloudy.28 mph100%29.56 "HgN/A
10:50 PM48 °FPartly cloudy.29 mph100%29.56 "HgN/A
10:20 PM50 °FPartly cloudy.29 mph94%29.59 "HgN/A
9:50 PM50 °FPassing clouds.26 mph94%29.59 "HgN/A
9:20 PM50 °FPassing clouds.25 mph94%29.62 "HgN/A
8:50 PM50 °FPassing clouds.25 mph94%29.65 "HgN/A
8:20 PM50 °FDrizzle. Partly sunny.24 mph94%29.65 "HgN/A
7:50 PM50 °FPartly sunny.21 mph94%29.65 "HgN/A
7:20 PM50 °FBroken clouds.14 mph94%29.68 "HgN/A
6:50 PM48 °FDrizzle. Fog.14 mph94%29.68 "Hg2 mi
6:20 PM48 °FDrizzle. Fog.14 mph94%29.71 "Hg2 mi
5:50 PM46 °FDrizzle. Fog.14 mph93%29.74 "Hg2 mi
5:20 PM46 °FLight rain. Partly sunny.16 mph87%29.74 "Hg4 mi
4:50 PM46 °FLight rain. Partly sunny.14 mph82%29.77 "HgN/A
4:20 PM46 °FLight rain. Partly sunny.16 mph82%29.80 "HgN/A
3:50 PM46 °FLight rain. Broken clouds.15 mph76%29.83 "HgN/A
3:20 PM46 °FLight rain. Broken clouds.16 mph71%29.86 "HgN/A
2:50 PM48 °FLight rain. Partly sunny.16 mph66%29.86 "HgN/A
2:20 PM48 °FPassing clouds.15 mph62%29.86 "HgN/A
1:50 PM48 °FPassing clouds.18 mph62%29.89 "HgN/A
12:50 PM46 °FPassing clouds.16 mph71%29.89 "HgN/A
12:20 PM48 °FPassing clouds.20 mph66%29.89 "HgN/A
11:50 AM46 °FPassing clouds.14 mph62%29.92 "HgN/A
11:20 AM46 °FPassing clouds.17 mph62%29.89 "HgN/A
Weather by CustomWeather, © 2015

See weather overviewHow to use our weather pages